This demonstration page uses our WeatherBlox Daily Observations layout. Learn more.

Left ArrowRight Arrow

39.51506, -84.39828

Hourly Observations for June 17, 2021

Temp ( °F °C ) Dew Point ( °F °C ) Humidity (%) Winds ( mph kmh ) Pressure ( in mb ) Visibility ( mi km ) Precip ( " mm )
12:15 am 00:15 Clear 58 14.4 53 11.9 85 85 NNE 5 7 30.05 1018 10 16 N/A
12:35 am 00:35 Clear 57 13.7 54 12.3 91 91 N 3 6 30.05 1018 10 16 N/A
12:55 am 00:55 Clear 57 13.9 54 12 88 88 N N/A 30.05 1018 10 16 N/A
1:15 am 01:15 Clear 56 13.3 54 12.4 94 94 N N/A 30.05 1018 10 16 N/A
1:35 am 01:35 Clear 55 12.6 54 12.3 98 98 N N/A 30.05 1018 10 16 N/A
1:55 am 01:55 Clear 55 12.5 54 12.1 97 97 N N/A 30.04 1017 10 16 N/A
2:15 am 02:15 Clear 54 12.2 53 11.7 97 97 NNE 3 6 30.05 1018 10 16 N/A
2:35 am 02:35 Mostly Cloudy 55 12.6 54 12.1 97 97 N 3 6 30.05 1018 10 16 N/A
2:55 am 02:55 Partly Cloudy 55 12.7 54 12.2 97 97 NNE 3 6 30.05 1018 10 16 N/A
3:15 am 03:15 Partly Cloudy 54 12.3 53 11.8 97 97 N 3 6 30.05 1018 10 16 N/A
3:35 am 03:35 Cloudy 54 12.4 54 12.1 98 98 N N/A 30.05 1018 10 16 N/A
3:55 am 03:55 Partly Cloudy 54 12.1 53 11.7 97 97 N 3 6 30.05 1018 10 16 N/A
4:15 am 04:15 Clear 54 12 54 12 100 100 N N/A 30.05 1018 10 16 N/A
4:35 am 04:35 Cloudy 54 12 54 12 100 100 N 3 6 30.05 1018 10 16 N/A
4:55 am 04:55 Cloudy 54 12 N/A N/A N N/A 30.05 1018 10 16 N/A
5:15 am 05:15 Partly Cloudy 54 12 54 12 100 100 N 3 6 30.05 1018 10 16 N/A
5:35 am 05:35 Clear 54 12 N/A N/A N N/A 30.06 1018 10 16 N/A
5:55 am 05:55 Clear 52 11 N/A N/A N N/A 30.08 1019 10 16 N/A
6:15 am 06:15 Sunny 54 12 N/A N/A N N/A 30.07 1018 10 16 N/A
6:35 am 06:35 Sunny 52 11 N/A N/A N N/A 30.08 1019 10 16 N/A
6:55 am 06:55 Sunny 54 12 N/A N/A N 3 6 30.07 1018 10 16 N/A
7:15 am 07:15 Sunny 55 13 N/A N/A N N/A 30.08 1019 10 16 N/A
7:35 am 07:35 Sunny 57 14.1 56 13.4 96 96 N N/A 30.06 1018 10 16 N/A
7:55 am 07:55 Sunny 60 15.3 56 13.6 90 90 N N/A 30.07 1018 10 16 N/A
8:15 am 08:15 Sunny 62 16.6 58 14.4 87 87 N N/A 30.06 1018 10 16 N/A
8:35 am 08:35 Sunny 65 18.2 56 13.4 74 74 N N/A 30.06 1018 10 16 N/A
8:55 am 08:55 Sunny 67 19.6 57 14.1 71 71 WNW 3 6 30.06 1018 10 16 N/A
9:15 am 09:15 Sunny 69 20.7 56 13.4 63 63 WSW 5 7 30.06 1018 10 16 N/A
9:35 am 09:35 Sunny 70 21.3 56 13.6 62 62 WSW 6 9 30.06 1018 10 16 N/A
9:55 am 09:55 Sunny 72 22.2 55 13 56 56 WSW 8 13 30.07 1018 10 16 N/A
10:15 am 10:15 Sunny 74 23.3 55 12.9 52 52 SW 9 15 30.07 1018 10 16 N/A
10:35 am 10:35 Sunny 75 24.1 56 13.2 51 51 SW 6 9 30.06 1018 10 16 N/A
10:55 am 10:55 Sunny 76 24.6 57 13.7 51 51 SSW 9 15 30.04 1017 10 16 N/A
11:15 am 11:15 Sunny 78 25.4 56 13.2 47 47 WSW 12 19 30.05 1018 10 16 N/A
11:35 am 11:35 Sunny 78 25.7 57 13.7 48 48 SSW 12 19 30.05 1018 10 16 N/A
11:55 am 11:55 Sunny 79 26.3 58 14.3 48 48 SW 9 15 30.04 1017 10 16 N/A
12:15 pm 12:15 Sunny 79 26 57 13.8 47 47 S 6 9 30.04 1017 10 16 N/A
12:35 pm 12:35 Sunny 80 26.4 58 14.2 47 47 WSW 7 11 30.04 1017 10 16 N/A
12:55 pm 12:55 Sunny 80 26.9 57 13.7 44 44 SW 6 9 30.03 1017 10 16 N/A
1:15 pm 13:15 Sunny 81 27.2 58 14.3 45 45 SW 8 13 30.03 1017 10 16 N/A
1:35 pm 13:35 Sunny 81 27.3 57 14 44 44 SSW 8 13 30.02 1017 10 16 N/A
1:55 pm 13:55 Sunny 81 27.4 55 12.8 41 41 WSW 6 9 30.02 1017 10 16 N/A
2:15 pm 14:15 Sunny 82 27.9 56 13.2 40 40 S 6 9 30.01 1016 10 16 N/A
2:35 pm 14:35 Sunny 82 27.7 57 13.8 42 42 WSW 6 9 30.00 1016 10 16 N/A
2:55 pm 14:55 Sunny 82 28 56 13.1 40 40 WSW 7 11 29.99 1015 10 16 N/A
3:15 pm 15:15 Sunny 83 28.5 56 13.4 39 39 SSW 8 13 29.99 1015 10 16 N/A
3:35 pm 15:35 Sunny 83 28.6 55 12.8 38 38 S 9 15 29.97 1015 10 16 N/A
3:55 pm 15:55 Sunny 84 28.8 56 13.3 39 39 SSW 6 9 29.96 1015 10 16 N/A
4:15 pm 16:15 Sunny 84 29 55 12.6 36 36 SSW 8 13 29.96 1015 10 16 N/A
4:35 pm 16:35 Sunny 85 29.3 53 11.5 33 33 SW 8 13 29.96 1015 10 16 N/A
4:55 pm 16:55 Sunny 85 29.2 54 12.4 35 35 SW 5 7 29.96 1015 10 16 N/A
5:15 pm 17:15 Sunny 85 29.4 55 12.9 36 36 WSW 8 13 29.96 1015 10 16 N/A
5:35 pm 17:35 Sunny 85 29.3 56 13.1 37 37 SW 8 13 29.95 1014 10 16 N/A
5:55 pm 17:55 Sunny 85 29.4 56 13.4 37 37 W 8 13 29.95 1014 10 16 N/A
6:15 pm 18:15 Sunny 84 29.1 56 13.2 38 38 W 7 11 29.95 1014 10 16 N/A
6:35 pm 18:35 Sunny 84 28.8 56 13.3 39 39 W 8 13 29.95 1014 10 16 N/A
6:55 pm 18:55 Sunny 84 28.9 56 13.1 38 38 WSW 9 15 29.95 1014 10 16 N/A
7:15 pm 19:15 Sunny 83 28.6 55 12.9 38 38 WSW 8 13 29.95 1014 10 16 N/A
7:35 pm 19:35 Sunny 83 28.1 56 13.1 40 40 WSW 8 13 29.96 1014 10 16 N/A
7:55 pm 19:55 Sunny 82 27.5 58 14.2 44 44 WSW 7 11 29.96 1014 10 16 N/A
8:15 pm 20:15 Sunny 80 26.5 60 15.3 50 50 WSW 6 9 29.96 1015 10 16 N/A
8:35 pm 20:35 Sunny 78 25.7 59 15.1 52 52 SW 7 11 29.96 1015 10 16 N/A
8:55 pm 20:55 Sunny 75 24.1 62 16.5 63 63 WSW 5 7 29.97 1015 10 16 N/A
9:15 pm 21:15 Clear 71 21.7 63 17.4 77 77 WSW 3 6 29.97 1015 10 16 N/A
9:35 pm 21:35 Clear 69 20.5 65 18.4 88 88 WSW 5 7 29.98 1015 10 16 N/A
9:55 pm 21:55 Clear 67 19.6 63 17.3 87 87 N N/A 30.00 1016 10 16 N/A
10:15 pm 22:15 Clear 68 20.1 64 18 88 88 N N/A 30.00 1016 10 16 N/A
10:35 pm 22:35 Clear 67 19.2 64 17.8 92 92 N N/A 30.01 1016 10 16 N/A
10:55 pm 22:55 Clear 66 19.1 63 17.3 89 89 N N/A 30.01 1016 10 16 N/A
11:15 pm 23:15 Clear 64 17.8 63 17.2 96 96 W 3 6 30.01 1016 10 16 N/A
11:35 pm 23:35 Clear 64 17.9 63 17 95 95 N N/A 30.01 1016 10 16 N/A
11:55 pm 23:55 Clear 64 17.7 62 16.9 95 95 N N/A 30.01 1016 10 16 N/A

Powered by AerisWeather